Temp
6 6 6 6 6 6 6 6 6 7 7 7 7 7 6 6 6 6 6 5 5 5 5 5 5 5 4 4 4 4 4 4 4 3 4 4 3 3 3 3 3 3 3
5 6 6 6 6 6 6 6 6 6 6 6 7 7 7 6 6 5 5 5 5 5 5 5 4 4 4 4 4 4 4 3 3 3 3 3 3 3 3 3 3 3 3
5 5 5 5 5 6 6 6 6 6 6 6 6 6 7 7 6 6 6 5 5 5 5 4 4 4 4 4 4 4 3 3 3 3 2 2 3 2 3 3 2 3 2
4 5 5 5 5 5 5 5 5 6 6 6 6 6 6 6 6 6 6 6 6 5 5 4 4 4 4 4 4 4 4 3 3 3 2 2 2 1 2 1 2 2 2
4 5 5 5 5 5 5 5 5 5 6 6 6 6 6 6 6 6 6 6 6 6 5 5 4 4 3 4 4 4 4 3 3 2 2 1 1 2 1 2 2 1 1
4 5 5 5 5 5 5 5 5 5 5 5 5 5 5 5 5 5 5 5 5 5 6 5 5 4 4 4 3 2 3 3 3 2 2 1 1 0 0 1 1 -0 0
4 4 4 4 4 4 4 4 4 5 5 5 5 5 5 5 5 5 5 5 5 5 5 5 5 4 4 3 3 3 2 2 2 2 2 1 1 0 -0 -0 -1 -0 -0
4 3 3 3 3 3 4 4 4 4 4 4 5 5 5 5 5 5 5 5 4 4 4 4 4 3 3 3 3 3 2 2 2 1 1 1 1 0 -0 -1 -1 -1 -2
3 2 2 2 2 3 3 3 3 4 4 4 4 5 5 5 5 5 5 5 5 5 4 4 3 3 3 3 3 2 2 1 1 1 0 -0 -0 -1 -1 -1 -1 -1 -2
2 2 2 2 2 2 2 3 3 4 4 4 4 5 5 5 5 5 5 5 5 5 4 4 4 4 3 3 3 2 2 1 1 1 0 0 -0 -1 -2 -2 -2 -2 -2
1 1 1 1 2 2 3 3 3 4 4 4 4 4 4 4 4 5 5 5 4 4 4 4 3 3 3 3 3 2 1 1 1 1 0 -1 -1 -2 -2 -3 -3 -3 -2
0 0 0 1 2 2 2 3 3 3 3 4 4 4 4 4 4 4 4 4 4 3 3 3 3 3 3 3 2 2 2 1 1 0 -0 -1 -2 -2 -4 -4 -4 -3 -3
-0 0 1 1 1 2 2 2 3 3 3 3 3 3 3 3 3 3 3 3 3 3 3 3 3 3 3 2 2 2 1 1 0 0 -0 -1 -1 -2 -3 -3 -4 -4 -3
-0 0 0 1 1 1 2 2 2 3 2 3 3 3 3 3 3 3 3 3 3 3 2 2 3 3 2 2 2 1 1 0 0 0 -0 -0 -1 -1 -2 -4 -3 -4 -4
-0 -0 0 1 1 1 2 2 2 2 2 2 2 2 2 2 2 2 2 2 2 2 2 2 2 2 2 1 1 1 0 -0 0 0 -0 -0 -1 -1 -2 -3 -3 -3 -4
-0 -0 0 0 1 1 1 2 2 2 2 1 1 1 2 2 2 2 1 1 2 2 2 2 1 2 1 1 1 0 -1 -1 -0 -0 -0 -1 -1 -2 -2 -2 -2 -3 -3
-1 -1 -0 0 1 1 1 1 1 1 1 1 1 1 1 1 1 1 1 1 1 1 1 1 1 0 0 0 -0 -1 -1 -1 -1 -1 -1 -1 -1 -2 -2 -2 -2 -3 -3
-1 -1 -0 0 1 1 1 1 0 0 0 0 1 0 0 0 0 1 1 1 1 1 1 0 -0 -1 -1 -1 -1 -1 -1 -1 -1 -1 -1 -1 -1 -1 -1 -1 -2 -2 -3
-1 -1 -0 0 1 1 1 0 0 0 0 0 0 -0 -1 -1 -0 0 0 1 0 0 -0 -0 -1 -1 -1 -1 -1 -1 -1 -1 -1 -1 -1 -1 -0 -0 -0 -0 -1 -1 -2
-1 -1 -1 -0 0 0 0 0 0 1 1 1 0 -0 -0 -1 -1 -1 -0 -0 -0 -0 -1 -1 -1 -1 -1 -1 -1 -1 -1 -1 -1 -1 -1 -1 -1 -0 -0 -0 -0 -1 -1
-1 -1 -1 -1 -0 -0 -0 0 0 0 1 1 0 -0 -1 -1 -1 -1 -1 -1 -1 -1 -1 -1 -1 -1 -2 -2 -2 -2 -2 -2 -2 -2 -1 -1 -1 -1 -1 -1 -1 -1 -1
-1 -2 -2 -1 -1 -1 -1 -0 -0 -0 -0 -0 -0 -0 -1 -1 -1 -1 -1 -1 -1 -1 -2 -2 -2 -2 -2 -2 -2 -2 -2 -2 -2 -2 -2 -2 -2 -2 -1 -1 -1 -2 -2
-1 -1 -2 -2 -2 -1 -1 -1 -1 -1 -1 -1 -1 -1 -1 -1 -2 -2 -2 -2 -2 -2 -3 -3 -2 -2 -3 -3 -3 -3 -3 -3 -3 -3 -3 -2 -2 -2 -2 -2 -2 -2 -3
-2 -2 -2 -2 -2 -2 -2 -1 -1 -1 -1 -1 -1 -1 -2 -2 -2 -2 -2 -2 -2 -3 -3 -3 -3 -3 -3 -3 -4 -4 -4 -4 -3 -3 -3 -3 -3 -3 -3 -2 -3 -3 -4
-3 -2 -2 -2 -2 -3 -3 -2 -2 -2 -2 -2 -2 -2 -2 -2 -2 -2 -3 -3 -3 -3 -3 -3 -3 -3 -4 -4 -4 -4 -4 -4 -4 -4 -4 -4 -4 -3 -3 -3 -4 -4 -5
-3 -3 -3 -2 -2 -3 -3 -3 -3 -2 -2 -2 -2 -3 -3 -3 -3 -3 -3 -3 -3 -4 -4 -4 -4 -4 -4 -4 -5 -5 -5 -5 -5 -5 -5 -5 -4 -4 -4 -4 -4 -5 -6
Height
3139 3141 3141 3143 3146 3149 3150 3150 3150 3153 3156 3156 3157 3158 3159 3160 3160 3160 3161 3161 3161 3160 3160 3159 3160 3161 3158 3159 3158 3156 3155 3154 3154 3151 3149 3149 3148 3147 3148 3146 3146 3148 3147
3132 3134 3136 3138 3140 3142 3145 3145 3146 3146 3147 3148 3149 3150 3151 3153 3155 3155 3154 3154 3154 3154 3153 3152 3152 3152 3151 3149 3150 3148 3147 3146 3146 3144 3142 3138 3138 3140 3141 3140 3138 3139 3139
3127 3128 3131 3133 3134 3136 3137 3139 3140 3141 3141 3140 3141 3142 3143 3143 3145 3146 3147 3148 3146 3146 3144 3144 3142 3143 3142 3142 3141 3140 3138 3137 3137 3137 3135 3131 3127 3128 3130 3132 3131 3130 3129
3121 3123 3125 3127 3128 3129 3131 3132 3133 3133 3134 3135 3135 3135 3135 3135 3136 3136 3136 3137 3137 3137 3137 3136 3134 3133 3133 3132 3132 3131 3130 3129 3127 3127 3126 3123 3122 3119 3116 3117 3120 3119 3119
3114 3117 3118 3120 3123 3124 3124 3125 3125 3126 3127 3128 3128 3128 3128 3128 3129 3128 3128 3128 3128 3127 3127 3127 3126 3125 3124 3124 3123 3122 3121 3120 3120 3118 3117 3115 3112 3111 3109 3105 3106 3107 3108
3108 3110 3112 3114 3116 3116 3117 3118 3118 3119 3120 3120 3121 3121 3121 3121 3121 3121 3121 3121 3121 3119 3119 3119 3119 3118 3117 3116 3115 3113 3112 3112 3111 3110 3107 3104 3103 3102 3100 3097 3094 3093 3094
3102 3104 3106 3107 3109 3110 3111 3112 3112 3113 3114 3113 3113 3114 3114 3114 3114 3114 3114 3113 3113 3112 3112 3111 3110 3110 3110 3109 3107 3105 3104 3103 3101 3100 3099 3095 3093 3092 3089 3086 3084 3081 3080
3098 3099 3100 3102 3103 3105 3105 3106 3107 3107 3107 3107 3107 3108 3108 3107 3107 3107 3106 3105 3104 3104 3103 3102 3102 3102 3102 3101 3100 3098 3096 3095 3093 3092 3090 3086 3084 3082 3080 3078 3075 3070 3069
3092 3094 3095 3097 3098 3099 3100 3101 3101 3101 3101 3101 3101 3101 3100 3100 3099 3099 3098 3097 3096 3094 3093 3093 3092 3092 3091 3091 3091 3089 3087 3086 3085 3082 3080 3077 3075 3073 3070 3068 3066 3064 3060
3088 3090 3091 3092 3093 3094 3095 3096 3096 3095 3095 3094 3094 3093 3092 3092 3092 3092 3090 3089 3088 3087 3085 3084 3084 3083 3082 3082 3081 3080 3078 3077 3076 3074 3072 3069 3066 3063 3060 3058 3056 3055 3054
3086 3087 3088 3088 3089 3089 3089 3089 3089 3088 3087 3087 3086 3085 3085 3084 3085 3085 3084 3083 3082 3080 3078 3077 3076 3075 3076 3075 3073 3072 3071 3069 3068 3066 3064 3062 3059 3055 3050 3047 3046 3046 3046
3083 3084 3084 3085 3085 3085 3084 3083 3082 3081 3080 3080 3079 3078 3078 3078 3078 3078 3077 3077 3075 3074 3072 3070 3069 3069 3069 3068 3067 3065 3063 3062 3061 3059 3056 3053 3050 3046 3039 3038 3037 3037 3037
3080 3080 3080 3080 3079 3079 3078 3076 3075 3074 3073 3073 3073 3073 3073 3073 3073 3072 3071 3070 3069 3067 3065 3065 3063 3063 3063 3062 3060 3058 3057 3056 3054 3051 3049 3046 3043 3040 3034 3032 3031 3030 3030
3077 3076 3075 3075 3074 3073 3072 3070 3069 3068 3067 3067 3067 3068 3068 3068 3067 3066 3065 3064 3062 3061 3060 3059 3057 3057 3056 3055 3054 3053 3051 3049 3047 3044 3042 3039 3036 3033 3029 3026 3022 3022 3022
3073 3072 3071 3070 3069 3068 3067 3065 3063 3062 3062 3062 3062 3063 3063 3062 3061 3060 3059 3058 3057 3055 3053 3053 3053 3053 3051 3050 3049 3048 3046 3044 3041 3037 3036 3033 3031 3028 3024 3021 3018 3017 3016
3068 3067 3067 3066 3065 3063 3061 3060 3058 3057 3057 3057 3058 3058 3057 3056 3055 3054 3054 3053 3052 3050 3049 3048 3048 3048 3047 3045 3044 3043 3042 3040 3038 3034 3031 3028 3027 3024 3022 3017 3016 3014 3012
3064 3064 3064 3063 3061 3059 3056 3055 3053 3053 3053 3053 3053 3052 3052 3052 3051 3050 3050 3050 3049 3047 3046 3044 3044 3044 3044 3043 3041 3041 3039 3037 3035 3033 3031 3029 3026 3022 3019 3017 3014 3011 3009
3060 3060 3060 3059 3057 3055 3053 3050 3048 3048 3049 3049 3048 3048 3047 3047 3047 3047 3047 3046 3045 3045 3043 3043 3044 3045 3044 3042 3041 3040 3038 3036 3034 3031 3029 3026 3023 3019 3016 3012 3009 3007 3005
3057 3057 3056 3055 3053 3050 3047 3046 3045 3044 3044 3044 3044 3043 3043 3044 3044 3044 3045 3045 3044 3044 3044 3043 3043 3044 3043 3042 3040 3038 3036 3034 3031 3028 3025 3022 3018 3015 3011 3007 3004 3001 2998
3053 3053 3052 3050 3049 3047 3045 3043 3043 3042 3041 3039 3039 3040 3041 3041 3042 3044 3045 3044 3044 3044 3044 3043 3043 3043 3041 3040 3037 3036 3033 3030 3027 3024 3021 3017 3014 3011 3007 3003 3000 2996 2993
3049 3049 3048 3047 3045 3044 3043 3042 3041 3041 3039 3038 3038 3038 3040 3041 3043 3043 3043 3043 3043 3043 3042 3042 3042 3040 3038 3037 3035 3033 3029 3027 3024 3020 3017 3013 3009 3006 3002 2999 2996 2992 2988
3045 3046 3045 3044 3042 3042 3041 3040 3040 3040 3040 3038 3038 3038 3040 3041 3042 3043 3042 3042 3042 3041 3040 3040 3039 3038 3036 3034 3032 3029 3026 3023 3019 3016 3012 3009 3005 3001 2997 2993 2990 2986 2983
3041 3042 3042 3041 3040 3040 3039 3039 3038 3039 3039 3038 3037 3037 3038 3039 3039 3040 3041 3040 3039 3039 3037 3037 3036 3035 3033 3031 3029 3026 3023 3020 3016 3012 3008 3004 3000 2996 2992 2989 2985 2981 2978
3038 3039 3039 3039 3038 3037 3036 3035 3035 3036 3036 3036 3036 3036 3037 3037 3037 3038 3038 3037 3037 3036 3035 3034 3033 3031 3030 3028 3026 3023 3020 3016 3012 3007 3003 2999 2995 2991 2986 2982 2979 2975 2972
3034 3035 3035 3035 3034 3033 3033 3032 3032 3032 3033 3033 3033 3033 3034 3034 3034 3034 3034 3033 3032 3032 3031 3031 3030 3028 3026 3024 3022 3019 3015 3011 3007 3002 2998 2994 2990 2986 2982 2977 2973 2970 2967
3029 3030 3030 3030 3030 3029 3029 3029 3028 3028 3029 3030 3030 3030 3030 3029 3029 3029 3030 3029 3028 3028 3027 3027 3026 3024 3022 3019 3016 3013 3010 3006 3002 2998 2994 2989 2984 2980 2975 2971 2968 2964 2961
Wind_Speed
31 31 32 32 30 28 29 31 32 30 30 32 32 32 31 30 31 31 30 30 30 31 32 33 33 33 35 33 33 33 34 35 34 35 37 36 36 36 35 35 34 31 30
30 32 34 33 32 33 32 32 33 34 35 35 35 35 34 33 32 32 33 33 34 35 36 37 39 39 38 37 36 37 37 37 36 38 38 42 42 39 36 36 36 34 32
30 32 32 31 30 29 28 31 32 33 35 37 37 37 37 35 34 33 33 35 38 40 42 42 44 43 43 43 40 38 39 40 40 39 40 44 46 45 41 38 37 37 37
34 34 34 34 33 30 29 29 30 32 33 33 34 35 35 34 33 33 34 35 36 37 38 38 39 39 38 39 37 36 37 38 41 42 43 43 46 46 49 49 43 40 40
32 33 35 35 32 31 31 31 30 30 30 30 30 31 32 32 32 33 34 34 34 35 35 35 35 37 37 38 40 40 40 39 39 43 44 44 45 49 49 51 50 50 50
34 34 33 32 32 32 31 29 28 27 26 27 27 27 28 30 31 31 31 31 30 31 31 29 29 30 31 32 32 32 34 36 39 39 41 43 45 46 46 48 51 49 51
32 33 32 30 27 26 26 25 25 25 24 25 25 26 27 29 30 31 31 32 32 33 33 34 34 33 32 32 33 33 34 35 37 37 38 41 43 43 44 47 48 49 47
24 23 24 24 22 22 23 23 23 24 25 27 27 27 28 29 30 31 32 34 35 36 36 36 35 35 34 33 35 36 38 39 39 39 41 43 44 43 41 42 43 46 45
19 19 19 18 18 19 20 20 20 22 24 25 26 28 29 30 30 30 31 31 31 32 33 34 35 34 33 32 31 34 36 35 33 35 37 39 42 45 43 39 37 38 40
18 18 17 16 17 17 19 20 23 25 26 27 28 29 29 29 29 28 28 27 27 28 28 27 26 26 27 28 29 31 31 30 29 30 32 35 38 42 46 45 38 35 33
17 16 16 17 18 20 22 24 26 27 28 28 28 29 28 28 27 26 25 25 25 24 24 24 24 23 24 26 28 28 26 25 27 29 31 34 35 36 39 41 36 34 32
17 16 17 18 20 22 24 26 27 27 27 26 26 26 25 25 24 23 23 22 23 23 23 24 24 25 25 26 26 25 24 25 27 30 33 35 35 35 34 32 32 30 29
15 16 18 19 20 21 21 23 25 25 25 23 22 21 21 21 21 21 21 21 20 22 22 22 21 22 23 25 23 22 24 25 27 28 30 31 31 28 23 25 31 34 31
16 17 19 18 17 17 19 20 21 21 21 20 19 19 19 20 20 20 19 19 18 19 17 18 16 19 22 21 19 20 20 24 24 25 25 25 24 25 22 22 22 23 29
16 16 16 14 14 16 17 18 18 17 18 18 17 17 17 18 18 18 17 18 18 16 14 15 14 18 17 15 14 16 20 14 16 22 20 18 15 16 21 20 19 21 19
13 14 15 15 15 15 17 17 17 15 15 16 16 16 17 16 15 14 15 15 15 13 12 13 14 13 11 13 14 13 11 10 11 12 11 15 11 12 14 12 16 18 22
15 15 16 16 15 16 16 17 17 16 15 15 15 15 15 14 12 12 12 11 10 10 8 4 3 4 3 2 4 6 6 8 10 12 13 13 12 15 19 18 18 18 16
17 16 15 15 15 15 15 14 12 13 13 14 14 14 15 12 10 9 9 7 4 1 2 5 7 6 6 6 4 6 7 8 10 13 15 17 18 19 21 22 23 23 24
16 15 14 14 13 13 12 10 9 10 11 12 13 12 8 8 7 5 4 4 4 4 4 5 4 2 2 3 4 6 8 10 12 14 16 19 20 21 22 23 23 23 23
15 14 12 10 10 10 8 7 7 7 8 8 7 7 8 7 6 6 5 4 3 4 3 2 1 2 3 6 8 10 12 14 16 18 19 20 21 22 22 22 22 22 21
14 12 9 9 9 8 7 7 6 6 5 4 4 4 6 8 7 6 6 5 4 4 3 4 5 5 6 8 10 12 14 15 17 19 21 22 23 23 23 23 22 22 21
14 12 10 10 10 9 9 8 7 6 5 4 5 6 7 7 7 7 6 5 6 6 6 7 7 8 9 11 12 14 16 17 19 20 21 23 23 24 23 23 23 22 21
8 11 12 12 12 11 11 10 9 8 8 6 6 6 8 9 9 8 8 8 8 8 8 9 10 11 12 13 14 15 16 18 19 21 22 23 23 23 23 23 23 22 21
11 11 11 13 12 11 11 11 11 11 10 9 9 9 10 10 10 10 10 9 9 9 11 11 12 13 14 14 15 16 18 20 22 23 24 23 23 24 24 24 24 23 22
13 12 12 13 14 12 10 11 12 13 12 12 11 11 12 11 11 12 12 11 11 12 13 14 15 15 15 16 16 17 19 22 24 25 25 24 24 25 24 24 24 24 24
21 17 15 15 15 14 12 11 11 12 13 14 13 14 13 13 12 13 14 14 13 13 15 16 17 17 17 18 18 19 21 23 25 26 26 26 26 26 26 25 26 25 25
Wind_Direction
236 237 240 242 243 244 250 255 260 260 256 258 261 263 267 268 268 270 270 271 271 272 274 276 276 277 280 282 282 281 280 280 281 282 282 281 280 276 277 280 281 280 279
240 241 244 249 250 250 248 250 253 256 260 263 265 267 266 264 263 262 268 270 271 272 273 272 274 276 279 281 281 282 281 280 279 280 282 282 281 278 280 279 278 278 276
241 243 246 250 253 254 252 251 251 251 254 259 262 265 269 271 270 267 260 260 262 264 266 271 274 274 274 277 278 277 278 279 277 278 276 279 280 284 280 279 277 276 276
243 246 249 251 253 255 258 259 258 257 256 256 258 262 266 269 269 269 269 267 265 265 266 267 270 273 273 273 274 274 276 277 279 279 278 276 279 279 284 281 277 271 273
244 246 247 249 253 256 258 260 261 259 258 257 257 260 262 265 267 267 269 270 271 273 272 270 267 267 270 271 274 275 275 274 276 277 278 278 277 281 281 282 282 279 272
248 251 253 256 257 258 259 259 258 258 256 257 257 257 259 262 263 266 269 271 274 274 276 274 272 271 275 279 280 278 278 275 273 275 279 278 275 280 280 281 282 284 283
250 251 253 254 252 250 250 250 252 254 255 255 257 259 261 264 268 271 272 273 274 273 273 273 274 274 273 273 274 276 279 279 279 282 281 282 283 283 283 283 281 282 279
247 246 243 243 242 243 247 251 254 256 258 259 260 262 263 265 266 269 271 272 272 271 272 272 272 271 270 270 272 275 276 277 279 281 283 283 286 286 285 282 279 283 287
245 239 236 237 240 244 249 255 258 260 262 265 267 267 269 270 271 272 273 273 273 273 272 271 272 274 275 274 273 274 277 279 281 280 281 282 284 284 286 286 282 281 283
231 230 233 239 247 253 259 263 265 266 268 270 270 270 269 270 271 274 276 276 276 275 275 276 276 275 275 278 282 283 285 285 283 285 288 288 287 288 286 284 280 277 278
231 232 240 250 259 264 268 270 270 271 273 274 272 269 268 268 270 273 274 277 280 281 280 276 273 273 278 282 286 285 283 282 287 291 292 292 289 292 287 281 275 270 275
233 236 248 255 261 266 270 271 271 271 272 272 269 267 265 265 268 272 277 280 282 280 278 275 275 275 278 286 288 287 287 284 285 289 292 294 294 300 289 282 270 269 270
229 247 261 269 273 272 272 273 272 272 269 268 266 264 262 265 270 274 278 281 281 282 279 271 270 276 282 285 284 287 283 281 284 288 290 290 292 288 311 292 270 267 272
246 259 269 273 272 275 277 275 275 270 262 261 259 259 263 268 272 275 277 280 283 284 282 276 276 283 283 279 283 284 284 292 286 288 290 288 291 289 304 306 295 276 281
254 265 269 274 280 281 281 281 275 268 257 257 257 262 268 274 278 278 275 279 289 290 283 281 287 283 276 274 288 296 290 291 304 301 276 291 313 315 315 305 315 300 289
267 270 272 277 283 286 284 283 276 267 254 254 262 268 272 278 281 277 281 283 288 291 287 293 285 284 275 287 294 295 301 316 326 6 338 308 313 335 347 346 310 303 289
269 262 271 275 285 289 287 285 278 260 254 256 263 270 273 274 277 279 277 280 288 290 295 292 285 302 308 343 56 65 50 22 1 354 352 345 335 315 316 315 310 306 301
261 263 268 276 285 291 286 288 276 260 259 262 271 273 274 265 260 268 274 270 255 253 114 110 107 110 101 81 54 7 358 352 344 342 337 332 325 320 316 311 306 301 294
249 260 271 276 286 298 296 286 282 273 268 269 274 279 253 242 256 253 202 172 136 126 134 128 128 139 43 14 349 342 335 337 336 334 333 333 332 330 324 322 316 309 302
246 259 272 278 284 297 301 305 301 291 279 273 264 245 252 232 187 188 187 178 169 162 161 148 196 289 321 326 331 327 328 330 328 327 326 327 328 328 326 321 318 315 311
243 255 275 287 288 289 289 287 291 294 286 250 209 203 180 172 191 200 192 195 202 213 208 236 262 295 313 316 320 319 323 323 322 321 322 322 322 322 323 320 317 315 312
242 252 270 290 300 288 280 277 276 275 262 233 185 181 193 207 212 210 215 224 228 231 242 261 282 296 303 311 315 317 319 320 320 320 320 319 318 319 319 318 317 313 310
262 262 263 278 289 290 269 262 261 266 250 239 225 217 222 220 218 226 237 243 247 250 256 269 282 291 300 306 311 315 318 321 323 323 323 321 319 317 316 317 315 312 307
265 267 265 268 285 300 273 259 252 256 253 246 242 234 233 231 230 238 244 252 258 266 272 276 282 289 296 302 308 314 320 324 325 325 323 322 320 318 316 315 312 309 304
254 263 270 269 274 279 284 271 257 251 252 250 247 242 241 238 237 244 251 252 258 264 271 276 281 286 293 300 308 315 320 326 329 327 324 324 322 320 316 314 311 307 302
262 255 261 265 268 268 269 286 264 250 251 251 249 248 248 247 250 254 259 261 263 268 273 277 281 286 292 299 306 313 318 325 329 329 327 325 322 321 319 316 312 307 302